sat.trackr.live / text

‹ back to catalog

KUIPER-00187

NORAD 67141 · 2025-301J

PAYLOAD ACTIVE UNKNOWN

§ Identity

Operator
Country
US
Launch date
2025-12-16
Launch site
AFETR
Launch vehicle
Mass (kg)
RCS (m²)

External: N2YO · Heavens-Above · Gunter

§ Orbital elements

Epoch: 2026-09-20T19:17:46.487328Z

Period
97.30 min
Inclination
51.9040°
Eccentricity
0.0000633
Mean motion
14.79938550 rev/d
Perigee alt
629.1 km
Apogee alt
630.0 km
Semi-major
7,007.7 km
B*
1.8530e-4
RAAN
297.8842°
Arg perigee
98.1148°
Mean anomaly
261.9887°
Rev number
4,241

§ Raw data

KUIPER-001871 67141U 25301J   26263.80401027  .00001192  00000+0  18530-3 0  99932 67141  51.9040 297.8842 0000633  98.1148 261.9887 14.79938550 42416

JSON: /api/v1/satellites/67141 · /tle

For live sub-satellite position, see the globe view (requires WebGL).

§ Visibility from observer

Set your observer location to see the next 7 days of passes ≥ 10°. The values pass through the URL so the page stays shareable.

No JS? Fill the form by hand. The geolocation button needs JavaScript.